THORAD AGENA D DEB

Satellite information

Favourite Embed

Satellite Type and Status

DEBRISIN ORBIT

Key statistics

Satellite THORAD AGENA D DEB at a glance.

Uptime

20290

Days in orbit

Revolutions

≈ 14.0

Per day

Orbit

SSO

Sun Synchronous Orbit

Inclination

98.8

Latest

Satellite identification and parameters

Extended collection of information and parameters for THORAD AGENA D DEB.

Object identification

Identified? True

Debris? True

Object name: THORAD AGENA D DEB

International designator: 1970-025PZ

Object number (NORAD): 19391

Object ID (CCSDS): 19391

Country: UNITED STATES OF AMERICA (US)

Current information (Y/N): Y

RCS size: SMALL

Orbital parameters

Period: 102.86 minutes

Inclination: 98.7503 deg

SMA: 7272.074 km

Apoapsis: 997.867 km

Periapsis: 790.012 km

RAAN: 158.2972 deg

Eccentricy: 0.01429128

Argument of periapsis: 232.3309 deg

Mean anomaly: 154.3169 deg

Mean motion: 13.99958907 rev/day

Mean motion (dot): 0.00002056 rev/day2

B* drag term: 0.0013070976 1/REarth

Two-line elements (TLE)

Creation date: Oct. 26, 2025, 2:54 a.m.

Reference frame: TEME

Reference center: EARTH

Epoch: Oct. 25, 2025, 2:15 p.m. UTC

TLE line 0: 0 THORAD AGENA D DEB

TLE line 1: 1 19391U 70025PZ 25298.59390071 .00002056 00000-0 13071-2 0 9994

TLE line 2: 2 19391 98.7503 158.2972 0142913 232.3309 154.3169 13.99958907886251

Live tracking on map

Real-time ground track for satellite THORAD AGENA D DEB.

In-orbit conjunctions

A list of the most updated potential collisions computed for object THORAD AGENA D DEB.

Target Orbit TCA Probability of collision Miss distance Type
SL-8 R/B LEO 2025-06-10 15:21:29 0.0001425231 203.0 (m) ROCKET BODY
COSMOS 1634 LEO 2024-11-29 22:03:15 0.0001990554 360.0 (m) PAYLOAD

Associated space launch

Meteorological research and development satellite

THORAD AGENA D DEB was lifted into orbit during the mission ‘Thorad SLV-2G Agena D | Nimbus 4’, on board a Thorad SLV-2G Agena D space rocket.

The launch took place on April 8, 1970, 8:17 a.m. from Space Launch Complex 2E.

For more information about the launch, click the button.

Launch to space Thorad SLV-2G Agena D | Nimbus 4
Thorad SLV-2G Agena D | Nimbus 4

Agency: N/A

Status: Launch Successful

Launch date: April 8, 1970, 8:17 a.m. UTC

Rocket: Thorad SLV-2G Agena D

Launch pad: Space Launch Complex 2E

Location: Vandenberg SFB, CA, USA

...

Latest news about this satellite

There are no fresh news available about this satellite. Check back as we update our databases every day.


Newsletter sign-up

Weekly statistics, charts and insights to help you stay on top of the space industry.